Location: Black River Observatory
(43.1000°N, 82.6200°W)
Time: 09:49:39
(UTC-04:00)

Daily predictions for brighter satellites

Satellite Brightness Start Highest point End
(mag) Time Altitude Azimuth Time Altitude Azimuth Time Altitude Azimuth
Cosmos 2297 Rocket 2.2 21:37:49 10° SSW 21:43:24 68° ESE 21:49:03 10° NNE
Cosmos 1842 Rocket 3.6 21:39:10 10° N 21:43:35 80° E 21:47:56 10° S
Envisat 3.5 21:42:46 10° S 21:47:47 62° W 21:52:51 10° NNW
Cosmos 1727 Rocket 4.1 21:41:57 10° S 21:48:11 67° E 21:54:29 10° NNE
SAR-Lupe-1 4.1 21:44:40 10° SSE 21:48:14 65° ENE 21:51:48 10° N
Helios 1A 3.2 21:44:52 10° S 21:49:00 73° WSW 21:53:10 10° NNW
Cosmos 1340 Rocket 3.1 21:46:33 10° S 21:50:25 49° E 21:54:21 10° NNE
Helios 1B rocket 2.5 21:47:05 10° NNE 21:51:16 89° ESE 21:55:24 10° SSW
Cosmos 1242 Rocket 4.0 21:49:38 10° NNE 21:52:42 24° ENE 21:55:46 10° SE
Meteor 2-5 Rocket 4.5 21:48:23 10° SSW 21:54:08 59° WNW 21:59:47 10° N
USA 32 4.1 21:50:09 10° S 21:55:19 65° E 22:00:32 10° N
Terra 4.0 21:55:09 10° E 21:57:09 13° ENE 21:59:10 10° NE
Cosmos 1980 4.4 21:54:39 10° NNW 22:00:12 54° WSW 22:05:42 10° S
Cosmos 1140 Rocket 3.4 21:57:00 10° SSW 22:02:10 81° ESE 22:07:21 10° NNE
MetOp-B 4.4 21:57:27 10° SSE 22:02:38 54° ENE 22:07:52 10° N
Cosmos 1867 4.2 22:02:41 10° S 22:07:32 34° ESE 22:12:25 10° NE
ATLAS 5 CENTAUR R/B 2.0 22:03:12 10° S 22:07:36 45° ESE 22:12:22 10° NE
Atlas Centaur 2 3.2 22:07:18 10° SSW 22:08:23 11° S 22:09:28 10° SSE
Lacrosse 4 Rocket 2.6 22:05:29 10° SW 22:09:35 48° WNW 22:13:50 10° NNE
Cosmos 2237 Rocket 3.0 22:05:29 10° NW 22:10:50 47° WSW 22:16:12 10° S
Tiangong 1 1.0 22:12:17 10° WSW 22:15:00 46° SSE 22:17:40 10° E
Cosmos 1726 3.7 22:14:29 10° NNE 22:17:19 21° ENE 22:19:32 13° ESE
YAOGAN 6 3.7 22:15:45 10° S 22:19:12 43° W 22:22:43 10° NNW
Milstar 3 Cent rocket 4.4 22:13:43 10° WSW 22:20:27 31° S 22:31:25 12° SE
Cosmos 1076 Rocket 3.7 22:17:10 10° S 22:21:25 55° E 22:25:42 10° NNE
Okean 3 Rocket 3.6 22:18:59 10° S 22:23:30 82° E 22:28:00 10° N
Cosmos 2227 Rocket 3.5 22:21:19 10° SW 22:26:43 45° WNW 22:32:09 10° NNE
SL-08 RB Rocket 3.9 22:24:05 14° SSE 22:27:54 57° ENE 22:32:24 10° N
Cosmos 1908 3.2 22:24:46 10° N 22:28:41 76° E 22:31:57 14° SSE
Cosmos 1850 Rocket 3.9 22:24:30 10° SSW 22:29:40 82° ESE 22:34:53 10° NNE
Cosmos 1356 Rocket 3.5 22:26:06 10° S 22:30:16 62° E 22:34:31 10° NNE
Cosmos 2221 2.7 22:26:33 10° NNW 22:30:57 75° W 22:35:18 10° S
SL-16 R/B 2.4 22:27:59 10° NNW 22:33:39 74° WSW 22:38:38 13° SSE
Cosmos 1674 2.6 22:30:09 10° S 22:33:55 79° E 22:37:41 10° N
H-2A R/B 2.4 22:31:57 15° SE 22:36:12 57° ENE 22:41:30 10° N
YAOGAN 11 4.1 22:34:30 14° SSE 22:38:18 86° ENE 22:42:52 10° NNW
KORONAS-FOTON 3.8 22:37:55 14° S 22:41:04 62° E 22:44:50 10° NNE
USA 234 3.2 22:35:43 10° NE 22:42:17 78° SE 22:48:49 10° SW
Cosmos 1818 3.6 22:37:44 10° NW 22:43:11 76° WSW 22:47:13 18° SSE
SPOT 5 2.9 22:39:46 15° SSE 22:43:46 88° WSW 22:48:50 10° NNW
ARGOS 3.2 22:39:06 13° SSE 22:44:00 82° WSW 22:49:28 10° NNW
USA 245 3.0 22:42:55 19° S 22:45:04 80° W 22:48:59 10° NNW
Cosmos 1766 Rocket 3.5 22:41:52 13° S 22:45:37 68° E 22:49:56 10° NNE
Lacrosse 5 2.6 22:42:07 10° NW 22:47:01 47° NE 22:51:05 14° ESE
ERS-1 Rocket 3.9 22:42:18 10° S 22:47:06 45° W 22:51:57 10° NNW
Cosmos 2228 Rocket 3.8 22:45:06 10° N 22:49:26 39° ENE 22:51:56 22° SE
Cosmos 1741 Rocket 4.5 22:48:05 10° SSW 22:53:22 65° WNW 22:58:40 10° NNE
Cosmos 1328 Rocket 4.0 22:50:20 10° N 22:54:33 47° ENE 22:56:48 24° SE
Cosmos 2061 Rocket 4.2 22:48:56 10° N 22:55:20 79° W 23:01:00 14° S
Cosmos 1515 Rocket 4.4 22:52:47 10° N 22:56:49 36° ENE 22:58:48 23° SE
Cosmos 2100 Rocket 4.4 22:51:15 10° NNW 22:57:28 64° W 23:03:34 11° S
RESURS DK-1 2.8 22:54:24 10° NNW 22:58:29 50° ENE 23:00:38 25° SE
Cosmos 1459 Rocket 4.3 22:54:03 10° NNW 23:00:19 66° W 23:06:02 12° S
Cosmos 371 Rocket 3.8 22:57:06 10° N 23:01:46 46° ENE 23:04:22 24° SE
Cosmos 1743 Rocket 3.9 23:00:07 25° SSE 23:02:15 45° E 23:06:23 10° NNE
H-2A R/B 2.9 23:00:30 23° ESE 23:02:37 36° ENE 23:06:33 10° N
Abrixas rocket 3.5 23:00:00 10° WNW 23:03:03 37° NNE 23:05:44 12° E
Meteor 2-2 Rocket 4.3 22:57:23 10° N 23:03:09 72° E 23:07:00 22° SSE
DMSP B5D2-2 4.1 22:58:46 10° NNE 23:03:57 59° E 23:07:30 20° S
Cosmos 2227 4.2 23:02:01 10° SSW 23:07:43 74° ESE 23:13:26 10° NNE
Cosmos 1151 Rocket 3.8 23:06:08 10° N 23:10:17 39° ENE 23:12:00 27° SE
Cosmos 2123 Rocket 3.9 23:05:26 16° S 23:10:25 76° E 23:16:38 10° N
EO 1 Delta rocket 3.9 23:08:12 20° S 23:11:29 76° W 23:16:07 10° NNW
Cosmos 1356 4.3 23:17:20 31° ESE 23:17:37 31° E 23:20:45 10° NNE
Landsat 7 3.8 23:16:33 26° S 23:19:15 81° WSW 23:24:03 10° NNW
SL-14 R/B 3.2 23:19:16 29° S 23:21:15 86° E 23:25:14 10° N
PSLV R/B 3.9 23:23:59 34° ENE 23:24:04 34° ENE 23:26:42 10° N
Cosmos 1328 3.7 23:22:19 29° S 23:24:20 89° W 23:28:24 10° N
SL-19 R/B 4.3 23:19:20 10° NNE 23:24:33 56° ESE 23:27:22 27° S
CZ-4 R/B 4.3 23:20:09 10° NNE 23:24:49 43° E 23:26:26 32° SE
Cosmos 2084 4.3 23:21:42 10° WSW 23:25:31 44° NW 23:29:13 10° NNE
IGS 5A 3.4 23:26:45 36° SSE 23:28:23 84° ENE 23:32:34 10° NNW
SPOT 1/Viking Rocket 4.3 23:27:37 18° SSW 23:31:05 44° W 23:36:01 10° NNW
Cosmos 1814 Rocket 4.0 23:27:04 10° NNW 23:32:27 87° WSW 23:34:58 32° SSE
Cosmos 1725 Rocket 4.1 23:26:39 10° NNW 23:32:54 74° W 23:36:52 24° S
Terra 1.8 23:31:59 32° S 23:34:12 83° WSW 23:39:00 10° NNW
ERBS 3.1 23:31:14 10° NW 23:34:30 44° NE 23:35:29 34° E
Cosmos 1486 Rocket 4.0 23:33:16 28° S 23:35:59 66° ESE 23:41:16 10° NNE
Cosmos 1300 3.3 23:34:33 10° NNW 23:38:16 49° W 23:39:44 31° SSW
Cosmos 2263 Rocket 2.4 23:38:53 33° SSE 23:40:56 49° ESE 23:46:18 10° NE
BREEZE-M DEB (TANK) 4.0 23:41:21 10° WNW 23:44:03 39° N 23:51:58 10° E
deb Chang Zheng 4 3.5 23:41:15 10° NNE 23:45:37 78° ESE 23:47:09 40° S
Cosmos 1626 2.1 23:46:13 56° SE 23:46:38 61° E 23:50:20 10° NNE
Cosmos 841 Rocket 3.4 23:42:41 10° NNW 23:47:58 80° ENE 23:49:58 39° SSE
Tiangong 1 2.2 23:47:42 10° W 23:49:18 30° W 23:49:18 30° W
Cosmos 220 Rocket 4.2 23:48:02 25° SSW 23:50:34 69° WNW 23:54:58 10° NNE
Cosmos 332 Rocket 4.4 23:46:01 10° NNW 23:50:44 49° WSW 23:52:42 31° SSW
Cosmos 1763 Rocket 3.4 23:47:13 10° NNW 23:52:20 74° WSW 23:54:12 39° S
ATLAS 5 CENTAUR R/B 3.9 23:48:19 10° W 23:52:28 29° NW 23:56:59 10° NNE
Cosmos 1726 4.0 23:49:35 10° NW 23:52:36 24° W 23:54:10 18° SW
Sich 1 4.4 23:53:19 24° E 23:53:29 24° E 23:56:55 10° NE
Spot 4 3.8 23:52:27 41° SSE 23:54:09 81° ENE 23:59:03 10° NNW
